Index of /hbase/Kinetic/imgkin

[ICO]NameLast modifiedSizeDescription

[DIR]Parent Directory  -  
[IMG]aircon.gif09-Nov-2016 10:20 2.3K 
[IMG]avog.gif09-Nov-2016 10:20 470  
[IMG]avogl.gif09-Nov-2016 10:20 2.0K 
[IMG]barf1.gif09-Nov-2016 10:20 1.7K 
[IMG]barf10.gif09-Nov-2016 10:20 7.4K 
[IMG]barf2.gif09-Nov-2016 10:20 8.6K 
[IMG]barf3.gif09-Nov-2016 10:20 4.4K 
[IMG]barf4.gif09-Nov-2016 10:20 3.9K 
[IMG]barf5.gif09-Nov-2016 10:20 2.7K 
[IMG]barf6.gif09-Nov-2016 10:20 2.6K 
[IMG]barf7.gif09-Nov-2016 10:20 3.5K 
[IMG]barf8.gif09-Nov-2016 10:20 2.7K 
[IMG]barf9.gif09-Nov-2016 10:20 3.4K 
[IMG]bol1.gif09-Nov-2016 10:20 632  
[IMG]bol11.gif09-Nov-2016 10:20 3.6K 
[IMG]bol12b.gif09-Nov-2016 10:20 5.5K 
[IMG]bol2b.gif09-Nov-2016 10:20 962  
[IMG]bol2c.gif09-Nov-2016 10:20 701  
[IMG]bol3b.gif09-Nov-2016 10:20 1.2K 
[IMG]bol7b.gif09-Nov-2016 10:20 678  
[IMG]bol9b.gif09-Nov-2016 10:20 3.7K 
[IMG]bze1.gif09-Nov-2016 10:20 3.4K 
[IMG]bze2.gif09-Nov-2016 10:20 2.2K 
[IMG]bze3.gif09-Nov-2016 10:20 1.9K 
[IMG]bze4.gif09-Nov-2016 10:20 2.2K 
[IMG]bze5.gif09-Nov-2016 10:20 5.4K 
[IMG]C.gif09-Nov-2016 10:20 961  
[IMG]cm3.gif09-Nov-2016 10:20 1.0K 
[IMG]Coke.jpg09-Nov-2016 10:20 7.3K 
[IMG]cokec.jpg09-Nov-2016 10:20 8.8K 
[IMG]cp.gif09-Nov-2016 10:20 152  
[IMG]cp1.gif09-Nov-2016 10:20 2.5K 
[IMG]cp2.gif09-Nov-2016 10:20 3.5K 
[IMG]cp3.gif09-Nov-2016 10:20 5.6K 
[IMG]cp4.gif09-Nov-2016 10:20 2.9K 
[IMG]cp5.gif09-Nov-2016 10:20 2.3K 
[IMG]cp6.gif09-Nov-2016 10:20 4.5K 
[IMG]crusht.jpg09-Nov-2016 10:20 15K 
[IMG]cv.gif09-Nov-2016 10:20 152  
[IMG]cv1.gif09-Nov-2016 10:20 2.5K 
[IMG]cv2.gif09-Nov-2016 10:20 3.5K 
[IMG]cv3.gif09-Nov-2016 10:20 2.7K 
[IMG]cv4.gif09-Nov-2016 10:20 2.4K 
[IMG]cv5.gif09-Nov-2016 10:20 3.9K 
[IMG]cv6.gif09-Nov-2016 10:20 8.5K 
[IMG]deltav.gif09-Nov-2016 10:20 162  
[IMG]df1.gif09-Nov-2016 10:20 5.3K 
[IMG]df2.gif09-Nov-2016 10:20 1.7K 
[IMG]df3.gif09-Nov-2016 10:20 4.7K 
[IMG]diff1.gif09-Nov-2016 10:20 11K 
[IMG]diff2.gif09-Nov-2016 10:20 2.1K 
[IMG]diff3.gif09-Nov-2016 10:20 3.2K 
[IMG]equi1.gif09-Nov-2016 10:20 16K 
[IMG]F.gif09-Nov-2016 10:20 931  
[IMG]ft3.gif09-Nov-2016 10:20 1.0K 
[IMG]gauge.gif09-Nov-2016 10:20 3.2K 
[IMG]grah.gif09-Nov-2016 10:20 3.5K 
[IMG]igas.gif09-Nov-2016 10:20 3.5K 
[IMG]igas2.gif09-Nov-2016 10:20 1.6K 
[IMG]igas3.gif09-Nov-2016 10:20 12K 
[IMG]igas4.gif09-Nov-2016 10:20 13K 
[IMG]igascn.gif09-Nov-2016 10:20 16K 
[IMG]igsfor.gif09-Nov-2016 10:20 2.3K 
[IMG]in3.gif09-Nov-2016 10:20 1.0K 
[IMG]inhg.gif09-Nov-2016 10:20 1.0K 
[IMG]K.gif09-Nov-2016 10:20 937  
[IMG]kinapp.gif09-Nov-2016 10:20 20K 
[IMG]kincon.gif09-Nov-2016 10:20 78K 
[   ]kinpre09-Nov-2016 10:20 774K 
[IMG]kinpre.gif09-Nov-2016 10:20 3.3K 
[IMG]kinpre1.gif09-Nov-2016 10:20 4.9K 
[IMG]kinpre2.gif09-Nov-2016 10:20 2.2K 
[IMG]kinpre3.gif09-Nov-2016 10:20 2.8K 
[IMG]kinpre4.gif09-Nov-2016 10:20 3.8K 
[IMG]kinpre5.gif09-Nov-2016 10:20 2.9K 
[IMG]kintem1.gif09-Nov-2016 10:20 5.7K 
[IMG]kintem1.psd09-Nov-2016 10:20 28K 
[IMG]kintem2.gif09-Nov-2016 10:20 6.2K 
[IMG]kintem3.gif09-Nov-2016 10:20 4.4K 
[IMG]kintem4.gif09-Nov-2016 10:20 8.0K 
[IMG]kpa.gif09-Nov-2016 10:20 1.0K 
[IMG]kt32.gif09-Nov-2016 10:20 1.7K 
[IMG]ktassu.gif09-Nov-2016 10:20 36K 
[IMG]L.gif09-Nov-2016 10:20 903  
[IMG]lambda.gif09-Nov-2016 10:20 141  
[IMG]lung1.gif09-Nov-2016 10:20 19K 
[IMG]lung2.gif09-Nov-2016 10:20 13K 
[IMG]m3.gif09-Nov-2016 10:20 1.0K 
[IMG]Mdge.jpg09-Nov-2016 10:20 9.6K 
[IMG]mdgex.jpg09-Nov-2016 10:20 6.7K 
[IMG]Meanfree.gif09-Nov-2016 10:20 72K 
[IMG]meanvis.gif09-Nov-2016 10:20 12K 
[IMG]mfree1.gif09-Nov-2016 10:20 13K 
[IMG]mfree1b.gif09-Nov-2016 10:20 20K 
[IMG]mfree2.gif09-Nov-2016 10:20 19K 
[IMG]mfree3.gif09-Nov-2016 10:20 4.4K 
[IMG]mfree3b.gif09-Nov-2016 10:20 12K 
[IMG]mfree4.gif09-Nov-2016 10:20 2.3K 
[IMG]mfree5.gif09-Nov-2016 10:20 10K 
[IMG]mfree6.gif09-Nov-2016 10:20 2.3K 
[IMG]mfv1.gif09-Nov-2016 10:20 8.2K 
[IMG]mfv2.gif09-Nov-2016 10:20 3.0K 
[IMG]mfv3.gif09-Nov-2016 10:20 9.6K 
[IMG]mfv4.gif09-Nov-2016 10:20 12K 
[IMG]mke1.gif09-Nov-2016 10:20 2.3K 
[IMG]mke2.gif09-Nov-2016 10:20 2.5K 
[IMG]mke3.gif09-Nov-2016 10:20 2.2K 
[IMG]mke4.gif09-Nov-2016 10:20 1.4K 
[IMG]mke5.gif09-Nov-2016 10:20 1.5K 
[IMG]mmhg.gif09-Nov-2016 10:20 1.0K 
[IMG]msp6.gif09-Nov-2016 10:20 317  
[IMG]mspe.gif09-Nov-2016 10:20 2.6K 
[IMG]mspe10.gif09-Nov-2016 10:20 5.3K 
[IMG]mspe11.gif09-Nov-2016 10:20 4.4K 
[IMG]mspe12.gif09-Nov-2016 10:20 6.4K 
[IMG]mspe13.gif09-Nov-2016 10:20 4.5K 
[IMG]mspe2.gif09-Nov-2016 10:20 4.6K 
[IMG]mspe3.gif09-Nov-2016 10:20 5.2K 
[IMG]mspe4.gif09-Nov-2016 10:20 1.5K 
[IMG]mspe5.gif09-Nov-2016 10:20 656  
[IMG]mspe6.gif09-Nov-2016 10:20 553  
[IMG]mspe7.gif09-Nov-2016 10:20 1.5K 
[IMG]mspe8.gif09-Nov-2016 10:20 572  
[IMG]mspe9.gif09-Nov-2016 10:20 563  
[IMG]mxdv1.gif09-Nov-2016 10:20 334  
[IMG]mxdv10.gif09-Nov-2016 10:20 3.2K 
[IMG]mxdv11.gif09-Nov-2016 10:20 1.8K 
[IMG]mxdv12.gif09-Nov-2016 10:20 522  
[IMG]mxdv13.gif09-Nov-2016 10:20 692  
[IMG]mxdv2.gif09-Nov-2016 10:20 1.0K 
[IMG]mxdv3.gif09-Nov-2016 10:20 405  
[IMG]mxdv4.gif09-Nov-2016 10:20 398  
[IMG]mxdv5.gif09-Nov-2016 10:20 244  
[IMG]mxdv6.gif09-Nov-2016 10:20 289  
[IMG]mxdv7.gif09-Nov-2016 10:20 457  
[IMG]mxdv8.gif09-Nov-2016 10:20 1.0K 
[IMG]mxdv9.gif09-Nov-2016 10:20 1.0K 
[IMG]mxspd.gif09-Nov-2016 10:20 24K 
[IMG]Nmolrad.gif09-Nov-2016 10:20 4.5K 
[IMG]ntcoll.gif09-Nov-2016 10:20 37K 
[IMG]osm1.gif09-Nov-2016 10:20 47K 
[IMG]osm2.gif09-Nov-2016 10:20 43K 
[IMG]osm3.gif09-Nov-2016 10:20 37K 
[IMG]osmop.gif09-Nov-2016 10:20 1.5K 
[IMG]osmop2.gif09-Nov-2016 10:20 1.2K 
[IMG]p0.gif09-Nov-2016 10:20 157  
[IMG]pfin.gif09-Nov-2016 10:20 1.4K 
[IMG]ph.gif09-Nov-2016 10:20 156  
[IMG]pini.gif09-Nov-2016 10:20 1.5K 
[IMG]psi.gif09-Nov-2016 10:20 1.0K 
[IMG]psig.gif09-Nov-2016 10:20 1.3K 
[IMG]pv.gif09-Nov-2016 10:20 1.6K 
[IMG]pvt.gif09-Nov-2016 10:20 1.9K 
[IMG]pvtgas.gif09-Nov-2016 10:20 51K 
[IMG]rh1.gif09-Nov-2016 10:20 3.8K 
[IMG]rh2.gif09-Nov-2016 10:20 2.5K 
[IMG]rh3.gif09-Nov-2016 10:20 16K 
[IMG]rh4.gif09-Nov-2016 10:20 8.3K 
[IMG]rho.gif09-Nov-2016 10:20 144  
[IMG]rt32.gif09-Nov-2016 10:20 1.4K 
[IMG]rtf2.gif09-Nov-2016 10:20 2.6K 
[IMG]satdens.gif09-Nov-2016 10:20 2.4K 
[IMG]satvap.gif09-Nov-2016 10:20 3.0K 
[IMG]Sav.jpg09-Nov-2016 10:20 25K 
[IMG]Savi.gif09-Nov-2016 10:20 8.6K 
[IMG]Savt.jpg09-Nov-2016 10:20 14K 
[IMG]shg1.gif09-Nov-2016 10:20 5.6K 
[IMG]shg2.gif09-Nov-2016 10:20 7.6K 
[IMG]shg3.gif09-Nov-2016 10:20 2.3K 
[IMG]shm1.gif09-Nov-2016 10:20 13K 
[IMG]shm2.gif09-Nov-2016 10:20 599  
[IMG]shm3.gif09-Nov-2016 10:20 698  
[IMG]shm4.gif09-Nov-2016 10:20 21K 
[IMG]shmh.gif09-Nov-2016 10:20 43K 
[IMG]statex.gif09-Nov-2016 10:20 45K 
[IMG]statex.psd09-Nov-2016 10:20 77K 
[IMG]Sutherland.gif09-Nov-2016 10:20 22K 
[IMG]tfin.gif09-Nov-2016 10:20 1.6K 
[IMG]tini.gif09-Nov-2016 10:20 1.6K 
[IMG]vapapp.gif09-Nov-2016 10:20 17K 
[IMG]Vapdens.gif09-Nov-2016 10:20 7.5K 
[IMG]Vapdenshi.gif09-Nov-2016 10:20 8.6K 
[IMG]vfin.gif09-Nov-2016 10:20 1.4K 
[IMG]vini.gif09-Nov-2016 10:20 1.4K 
[IMG]vm.gif09-Nov-2016 10:20 144  
[IMG]vp.gif09-Nov-2016 10:20 151  
[IMG]vrms.gif09-Nov-2016 10:20 171  
[IMG]vt.gif09-Nov-2016 10:20 2.4K 
[IMG]waalplot.gif09-Nov-2016 10:20 8.0K 
[IMG]waals.gif09-Nov-2016 10:20 2.8K 
[IMG]watste.gif09-Nov-2016 10:20 24K 
[IMG]weighgas.gif09-Nov-2016 10:20 15K 
[IMG]wv1.gif09-Nov-2016 10:20 217  
[IMG]wv2.gif09-Nov-2016 10:20 210  
[IMG]wv3.gif09-Nov-2016 10:20 342  
[IMG]wv4.gif09-Nov-2016 10:20 1.5K 
[IMG]Vapdens.png05-Jan-2017 20:04 51K 
[IMG]Vapdenshi.png05-Jan-2017 20:04 60K 
[IMG]satdens.png05-Jan-2017 20:04 53K 
[IMG]satvap.png05-Jan-2017 20:04 66K 
[IMG]rh3.png05-Jan-2017 20:04 90K 
[IMG]vapp5.gif05-Jan-2017 20:04 34K 
[IMG]vapp1.gif05-Jan-2017 20:04 12K 
[IMG]vapp3.gif05-Jan-2017 20:04 24K 
[IMG]vapp4.gif05-Jan-2017 20:04 16K 
[IMG]vapp2.gif05-Jan-2017 20:04 29K 
[IMG]dewpt.png01-Mar-2017 15:45 14K 
[IMG]waalplot.png18-Apr-2017 20:33 65K 
[IMG]Nmolrad.png18-Apr-2017 20:33 17K 

Apache/2.2.15 (CentOS) Server at hyperphysics.phy-astr.gsu.edu Port 80